METEOR 2-11 DEB, 40708

Orbit data source: Space-Track

METEOR 2-11 DEB, 40708 is space debris in LEO originally from a launch on Thu, 05 Jul 1984 UTC launched from the Plesetsk Missile And Space Complex (PKMTR). Debris objects in space refer to the collection of defunct objects orbiting the Earth. Examples of debris include non-operational satellites, rocket bodies, and fragments generated from explosions, collisions, or faulty payload assembly.

Loading next visibility...
Identifier
40708, 1984-072K
Orbit
LEO
Country
Flag of CISCIS
Related business
Manufacturer
Unknown
Mission
Spacecraft
Bus & Motor
Unknown
Mass
Unknown
Launch date (UTC)
1984-07-05 (41 years ago)
Launch vehicle
Unknown
Launch site
Plesetsk Missile And Space Complex (PKMTR)
Object type
Payload
Rocket body
Debris
Shape & HBR
Unknown
Radar Cross Section
Small (<0.1 m²)

Expand to show TLE details & history
Last TLE update: 1 day ago

TLE from 1 day ago
0 METEOR 2-11 DEB
1 40708U 84072K   25260.20898606  .00001806  00000-0  12835-2 0  9990
2 40708  82.5140 228.0157 0026273  11.5377 348.6387 13.96908867535908
Epoch: 2025-09-17T05:00Z
TLE epoch observation values (Epoch: 2025-09-17T05:00:56.395Z)
Latitude
0.00001°
Longitude
156.3925°
Altitude
888.677 km
Speed
7.417 km/s
True Right ascension
15h 12m 03s
True Declination
0° 00' 00"
Sunlit
Object was in daylight at epoch
Visualization orbit readout
Latitude
Unknown
Longitude
Unknown
Altitude
Unknown
Speed
Unknown
Apparent Right ascension
Unknown
Apparent Declination
Unknown
Sunlit
N/A
Visualization observer readout
Local Sidereal Time
03:21:51
Azimuth
Unknown
Elevation
Unknown
Doppler factor
Unknown
Orbital elements
Apogee altitude
920.781 km
Perigee altitude
882.528 km
Semi-major axis
7,279.791 km
Eccentricity
0.00263
Inclination
82.514°
RAAN
228.0157°
Arg. of periapsis
11.5377°
True anomaly
348.5792°
Mean anomaly
348.6387°
Eccentric anomaly
348.60897°
Mean motion
3.49434 °/min
Orbital period
103.02 mins
BSTAR
0.0012835
Loading maneuver chart data...
Computing Atmospheric mass density...
Loading historical data...
Loading historical data...
Loading historical data...
Loading historical data...
Loading historical data...
Loading historical data...
Loading historical data...

Documentation

Showing up to 5 results
|